Regional Weather Roundup
Issued by NWS Little Rock, AR

Home | Current Version | Previous Version | Graphics & Text | Print | Product List | Glossary On
Versions: 1 2 3 4 5 6 7 8 9 10 11 12 13 14 15 16 17 18 19 20 21 22 23 24 25 26 27 28 29 30 31 32
000
ASUS44 KLZK 131705
RWRLZK

WEATHER ROUNDUP FOR ARKANSAS
NATIONAL WEATHER SERVICE LITTLE ROCK AR
1100 AM CST WED DEC 13 2017

NOTE: "FAIR" INDICATES FEW OR NO CLOUDS BELOW 12,000 FEET WITH NO
SIGNIFICANT WEATHER AND/OR OBSTRUCTIONS TO VISIBILITY.

ARZ001-003-010-029-131800-
NORTHWEST ARKANSAS

CITY           SKY/WX    TMP DP  RH WIND       PRES   REMARKS
FAYETTEVILLE   SUNNY     54  23  30 CALM      29.89F
FORT SMITH     SUNNY     48  25  40 CALM      29.93S
HARRISON       SUNNY     59  21  23 W12G30    29.80S
BENTONVILLE    SUNNY     51  25  36 W13       29.90S HAZE
ROGERS         SUNNY     51  25  36 W12       29.88F
SILOAM SPGS    SUNNY     51  25  36 W13       29.90F
HIGHFILL       SUNNY     51  26  37 W14       29.89S
SPRINGDALE     SUNNY     50  23  34 W12G21    29.90S
$$

ARZ004-005-016-131800-
NORTH CENTRAL ARKANSAS

CITY           SKY/WX    TMP DP  RH WIND       PRES   REMARKS
BATESVILLE     SUNNY     51  22  31 SW14G24   29.84F
FLIPPIN        SUNNY     59  23  25 W14       29.81S
MTN HOME       SUNNY     54  23  30 W8        29.80S
$$

ARZ040-041-131800-
WEST CENTRAL ARKANSAS

CITY           SKY/WX    TMP DP  RH WIND       PRES   REMARKS
MENA           SUNNY     55  27  33 W15       29.96F
MOUNT IDA      SUNNY     56  26  31 VRB7G17   29.92F
$$

ARZ009-017-025-026-028-131800-
NORTHEAST ARKANSAS

CITY           SKY/WX    TMP DP  RH WIND       PRES   REMARKS
CORNING        FAIR      46  23  39 SW28G35   29.81F
JONESBORO      SUNNY     47  25  42 SW24G35   29.87F
NEWPORT        SUNNY     49  23  36 SW26G33   29.85F
WALNUT RIDGE   SUNNY     49  20  31 SW23G33   29.82F
BLYTHEVILLE    SUNNY     48  24  39 SW22G38   29.87F
NW BLYTHEVILLE SUNNY     48  23  37 S22G36    29.86F
$$

ARZ022-023-033-042-044-131800-
CENTRAL ARKANSAS

CITY           SKY/WX    TMP DP  RH WIND       PRES   REMARKS
LITTLE ROCK    SUNNY     51  20  29 SW16      29.95F
N LITTLE ROCK    N/A     49  22  35 SW12G21   29.96F
JACKSONVILLE   SUNNY     50  20  30 SW20      29.92F
SEARCY         SUNNY     50  21  32 SW13G25   29.91F
HOT SPRINGS    SUNNY     52  23  32 SW15      29.97F
RUSSELLVILLE   SUNNY     51  25  36 SW6       29.91F
CLINTON        FAIR      48  23  37 S10       29.89F
$$

ARZ036-131800-
EAST ARKANSAS

CITY           SKY/WX    TMP DP  RH WIND       PRES   REMARKS
WEST MEMPHIS   LGT RAIN  47  24  40 SW14G25   29.93F
$$

ARZ050-053-066-070-073-131800-
SOUTHWEST ARKANSAS

CITY           SKY/WX    TMP DP  RH WIND       PRES   REMARKS
ARKADELPHIA    FAIR      52  25  35 SW15      30.00F
CAMDEN         SUNNY     54  19  26 S12       30.02F
TEXARKANA      SUNNY     55  26  32 SW16G26   30.02F
EL DORADO      SUNNY     54  25  32 S13       30.05F
DE QUEEN       SUNNY     48  29  47 W6        30.01F
$$

ARZ056-057-069-131800-
SOUTHEAST ARKANSAS

CITY           SKY/WX    TMP DP  RH WIND       PRES   REMARKS
PINE BLUFF     SUNNY     51  20  29 SW15      29.98F
STUTTGART      SUNNY     50  21  32 SW21G26   29.96F
MONTICELLO     SUNNY     53  20  27 S14G21    30.01F

$$






USA.gov is the U.S. government's official web portal to all federal, state and local government web resources and services.